Weather History for Manitowoc, WI

Change the Weather History Date:

Monday, February 18, 2013

  Actual Average Record
Temperature  
Mean Temperature 32 °F -  
Max Temperature 37 °F 33 °F 50 °F (1981)
Min Temperature 26 °F 18 °F -15 °F (1979)
Degree Days  
Heating Degree Days 34    
Moisture  
Dew Point 28 °F    
Average Humidity 77    
Maximum Humidity 93    
Minimum Humidity 64    
Precipitation  
Precipitation 0.38 in - - ()
Sea Level Pressure  
Sea Level Pressure 29.63 in    
Wind  
Wind Speed 17 mph (South)    
Max Wind Speed 25 mph    
Max Gust Speed 32 mph    
Visibility 8 miles    
Events      
Averages and records for this station are not official NWS values.
T = Trace of Precipitation, MM = Missing Value Source: NWS Daily Summary

Daily Weather History Graph

Daily Weather History Graph

Search for Another Location

Airport:

Trip Planner

Search our weather history database for the weather conditions in past years. The results will help you decide how hot, cold, wet, or windy it might be!

Date:

Astronomy

Feb. 18, 2013 Rise Set
Actual Time 6:45 AM CST 5:24 PM CST
Civil Twilight 6:15 AM CST 5:54 PM CST
Nautical Twilight 5:41 AM CST 6:27 PM CST
Astronomical Twilight 5:08 AM CST 7:01 PM CST
Moon 11:04 AM CST (2/18) 1:30 AM CST (2/18)
Length of Visible Light 11h 38m
Length of Day
10h 39m
First Quarter, 58% of the Moon is Illuminated
Feb 18
First Quarter
Feb 25
Full
Mar 4
Last Quarter
Mar 11
New
Mar 19
First Quarter

Hourly Weather History & Observations

Time (CST) Temp. Windchill Dew Point Humidity Pressure Visibility Wind Dir Wind Speed Gust Speed Precip Events Conditions
12:15 AM 26.6 °F 17.5 °F 15.8 °F 64% 29.97 in 10.0 mi South 9.2 mph - N/A   Overcast
12:35 AM 28.4 °F 15.8 °F 19.4 °F 69% 29.96 in 10.0 mi SSE 18.4 mph 21.9 mph N/A   Overcast
12:55 AM 30.2 °F 17.4 °F 19.4 °F 64% 29.95 in 10.0 mi South 20.7 mph 26.5 mph N/A   Overcast
1:15 AM 30.2 °F 18.5 °F 19.4 °F 64% 29.94 in 10.0 mi SSE 17.3 mph 26.5 mph N/A   Overcast
1:35 AM 30.2 °F 17.8 °F 21.2 °F 69% 29.93 in 10.0 mi SSE 19.6 mph 25.3 mph N/A   Overcast
1:55 AM 30.2 °F 17.4 °F 21.2 °F 69% 29.92 in 10.0 mi SSE 20.7 mph 26.5 mph N/A   Overcast
2:15 AM 30.2 °F 17.4 °F 21.2 °F 69% 29.92 in 10.0 mi SSE 20.7 mph - N/A   Overcast
2:35 AM 32.0 °F 19.8 °F 21.2 °F 64% 29.90 in 10.0 mi SSE 20.7 mph 25.3 mph N/A   Overcast
2:55 AM 32.0 °F 19.2 °F 23.0 °F 69% 29.88 in 10.0 mi SSE 23.0 mph 27.6 mph N/A   Overcast
3:15 AM 32.0 °F 19.8 °F 23.0 °F 69% 29.85 in 10.0 mi SSE 20.7 mph - N/A   Overcast
3:35 AM 32.0 °F 20.1 °F 24.8 °F 75% 29.84 in 10.0 mi SSE 19.6 mph 26.5 mph N/A   Mostly Cloudy
3:55 AM 32.0 °F 20.5 °F 24.8 °F 75% 29.82 in 10.0 mi SSE 18.4 mph 28.8 mph N/A   Clear
4:15 AM 32.0 °F 20.1 °F 24.8 °F 75% 29.81 in 10.0 mi SSE 19.6 mph 27.6 mph N/A   Clear
4:35 AM 33.8 °F 21.9 °F 24.8 °F 70% 29.80 in 10.0 mi SSE 21.9 mph 32.2 mph N/A   Clear
4:55 AM 33.8 °F 22.2 °F 24.8 °F 70% 29.79 in 10.0 mi SSE 20.7 mph 29.9 mph N/A   Clear
5:15 AM 33.8 °F 22.8 °F 24.8 °F 70% 29.79 in 10.0 mi SSE 18.4 mph 26.5 mph N/A   Clear
5:35 AM 33.8 °F 22.2 °F 26.6 °F 75% 29.77 in 10.0 mi SSE 20.7 mph - N/A   Clear
5:55 AM 33.8 °F 21.6 °F 24.8 °F 70% 29.76 in 10.0 mi SSE 23.0 mph 31.1 mph N/A   Clear
6:15 AM 33.8 °F 22.2 °F 26.6 °F 75% 29.75 in 10.0 mi SSE 20.7 mph 31.1 mph N/A   Clear
6:35 AM 33.8 °F 21.6 °F 26.6 °F 75% 29.74 in 10.0 mi SSE 23.0 mph 26.5 mph N/A   Clear
6:55 AM 33.8 °F 21.0 °F 26.6 °F 75% 29.74 in 10.0 mi SSE 25.3 mph 31.1 mph N/A   Clear
7:15 AM 33.8 °F 22.2 °F 26.6 °F 75% 29.74 in 10.0 mi SSE 20.7 mph 28.8 mph N/A   Clear
7:35 AM 33.8 °F 21.9 °F 26.6 °F 75% 29.73 in 10.0 mi SSE 21.9 mph 31.1 mph N/A   Clear
7:55 AM 33.8 °F 22.8 °F 26.6 °F 75% 29.72 in 10.0 mi SSE 18.4 mph 32.2 mph N/A   Clear
8:15 AM 33.8 °F 21.3 °F 26.6 °F 75% 29.71 in 10.0 mi SSE 24.2 mph 31.1 mph N/A   Clear
8:35 AM 35.6 °F 24.8 °F 26.6 °F 70% 29.71 in 10.0 mi SSE 19.6 mph 28.8 mph N/A   Clear
8:55 AM 35.6 °F 24.8 °F 26.6 °F 70% 29.70 in 10.0 mi SSE 19.6 mph 24.2 mph N/A   Clear
9:15 AM 35.6 °F 24.0 °F 26.6 °F 70% 29.69 in 10.0 mi SSE 23.0 mph 28.8 mph N/A   Clear
9:35 AM 35.6 °F 23.7 °F 26.6 °F 70% 29.69 in 10.0 mi SSE 24.2 mph 28.8 mph N/A   Clear
9:55 AM 35.6 °F 24.8 °F 26.6 °F 70% 29.68 in 10.0 mi South 19.6 mph 31.1 mph N/A   Clear
10:15 AM 35.6 °F 23.4 °F 26.6 °F 70% 29.67 in 10.0 mi South 25.3 mph 31.1 mph N/A   Clear
10:35 AM 35.6 °F 24.0 °F 26.6 °F 70% 29.66 in 10.0 mi SSE 23.0 mph 31.1 mph N/A   Clear
10:55 AM 35.6 °F 24.8 °F 26.6 °F 70% 29.66 in 10.0 mi South 19.6 mph 28.8 mph N/A   Clear
11:15 AM 35.6 °F 24.0 °F 26.6 °F 70% 29.64 in 10.0 mi SSE 23.0 mph 28.8 mph N/A   Clear
11:35 AM 35.6 °F 25.2 °F 26.6 °F 70% 29.64 in 10.0 mi SSE 18.4 mph 28.8 mph N/A   Clear
11:55 AM 35.6 °F 24.0 °F 26.6 °F 70% 29.62 in 10.0 mi South 23.0 mph 29.9 mph N/A   Clear
12:15 PM 37.4 °F 27.5 °F 26.6 °F 65% 29.61 in 10.0 mi SSE 18.4 mph 32.2 mph N/A   Clear
12:35 PM 37.4 °F 27.8 °F 28.4 °F 70% 29.60 in 10.0 mi South 17.3 mph 26.5 mph N/A   Clear
12:55 PM 37.4 °F 26.9 °F 28.4 °F 70% 29.59 in 10.0 mi SSE 20.7 mph 24.2 mph N/A   Clear
1:15 PM 37.4 °F 27.8 °F 28.4 °F 70% 29.58 in 10.0 mi SSE 17.3 mph 23.0 mph N/A   Clear
1:35 PM 37.4 °F 27.8 °F 30.2 °F 75% 29.57 in 10.0 mi SSE 17.3 mph - N/A   Clear
1:55 PM 37.4 °F 27.5 °F 30.2 °F 75% 29.56 in 10.0 mi SSE 18.4 mph 24.2 mph N/A   Clear
2:15 PM 37.4 °F 28.2 °F 30.2 °F 75% 29.56 in 10.0 mi South 16.1 mph - N/A   Clear
2:35 PM 37.4 °F 27.5 °F 30.2 °F 75% 29.55 in 10.0 mi SSE 18.4 mph 24.2 mph N/A   Clear
2:55 PM 37.4 °F 27.8 °F 30.2 °F 75% 29.55 in 10.0 mi SSE 17.3 mph - N/A   Clear
3:15 PM 37.4 °F 28.2 °F 32.0 °F 81% 29.55 in 10.0 mi South 16.1 mph 21.9 mph N/A   Clear
3:35 PM 37.4 °F 28.5 °F 32.0 °F 81% 29.54 in 10.0 mi South 15.0 mph - N/A   Scattered Clouds
3:55 PM 37.4 °F 28.9 °F 30.2 °F 75% 29.53 in 10.0 mi SSE 13.8 mph - N/A   Overcast
4:15 PM 37.4 °F 30.3 °F 30.2 °F 75% 29.51 in 10.0 mi SSE 10.4 mph - N/A   Overcast
4:35 PM 37.4 °F 30.3 °F 32.0 °F 81% 29.49 in 10.0 mi SSE 10.4 mph - N/A   Overcast
4:55 PM 37.4 °F 30.3 °F 32.0 °F 81% 29.49 in 10.0 mi SSE 10.4 mph - N/A   Overcast
5:15 PM 37.4 °F 30.3 °F 33.8 °F 87% 29.49 in 10.0 mi South 10.4 mph - N/A   Overcast
5:35 PM 37.4 °F 31.4 °F 33.8 °F 87% 29.49 in 10.0 mi South 8.1 mph - N/A   Overcast
5:55 PM 37.4 °F 30.8 °F 33.8 °F 87% 29.49 in 10.0 mi South 9.2 mph - N/A   Overcast
6:15 PM 37.4 °F 33.8 °F 33.8 °F 87% 29.48 in 7.0 mi SSW 4.6 mph - N/A   Overcast
6:35 PM 37.4 °F 32.8 °F 33.8 °F 87% 29.47 in 8.0 mi SSE 5.8 mph - 0.01 in   Overcast
6:55 PM 37.4 °F 31.4 °F 33.8 °F 87% 29.46 in 7.0 mi West 8.1 mph - 0.01 in   Overcast
7:15 PM 35.6 °F - 33.8 °F 93% 29.46 in 4.0 mi Calm Calm - 0.01 in   Overcast
7:35 PM 35.6 °F 32.8 °F 33.8 °F 93% 29.45 in 3.0 mi NNW 3.5 mph - 0.04 in   Overcast
7:55 PM 35.6 °F 28.6 °F 33.8 °F 93% 29.43 in 3.0 mi NW 9.2 mph - 0.07 in   Overcast
8:15 PM 35.6 °F 29.2 °F 33.8 °F 93% 29.42 in 4.0 mi NW 8.1 mph - 0.02 in   Overcast
8:35 PM 35.6 °F 29.2 °F 33.8 °F 93% 29.41 in 3.0 mi NW 8.1 mph - 0.04 in   Mostly Cloudy
8:55 PM 35.6 °F 29.9 °F 33.8 °F 93% 29.40 in 4.0 mi NW 6.9 mph - 0.04 in   Overcast
9:15 PM 35.6 °F 28.6 °F 32.0 °F 87% 29.40 in 5.0 mi NW 9.2 mph - 0.03 in   Overcast
9:35 PM 33.8 °F 28.6 °F 30.2 °F 87% 29.39 in 3.0 mi NW 5.8 mph - 0.07 in   Overcast
9:55 PM 33.8 °F 28.6 °F 30.2 °F 87% 29.38 in 1.5 mi NW 5.8 mph - 0.11 in   Overcast
10:15 PM 33.8 °F 28.6 °F 30.2 °F 87% 29.38 in 1.0 mi WNW 5.8 mph - 0.03 in   Overcast
10:35 PM 33.8 °F 28.6 °F 30.2 °F 87% 29.37 in 1.0 mi NW 5.8 mph - 0.05 in   Overcast
10:55 PM 33.8 °F 28.6 °F 30.2 °F 87% 29.37 in 0.8 mi WNW 5.8 mph - 0.08 in   Overcast
11:15 PM 33.8 °F 28.6 °F 30.2 °F 87% 29.37 in 1.0 mi WNW 5.8 mph - 0.01 in   Overcast
11:35 PM 33.8 °F 25.3 °F 30.2 °F 87% 29.38 in 1.8 mi WNW 11.5 mph - 0.05 in   Overcast
11:55 PM 33.8 °F 25.3 °F 30.2 °F 87% 29.38 in 2.0 mi WNW 11.5 mph - 0.07 in   Overcast